Weather History for Bozeman, MT

Change the Weather History Date:

Saturday, November 3, 2012

  Actual Average Record
Temperature  
Mean Temperature 40 °F 39 °F  
Max Temperature 57 °F 53 °F 66 °F (1983)
Min Temperature 22 °F 25 °F -19 °F (1991)
Degree Days  
Heating Degree Days 25    
Month to date heating degree days 65  
Since 1 July heating degree days 998  
Cooling Degree Days 0    
Month to date cooling degree days 0  
Year to date cooling degree days 284  
Moisture  
Dew Point 28 °F    
Average Humidity 62    
Maximum Humidity 92    
Minimum Humidity 32    
Precipitation  
Precipitation 0.00 in 0.03 in 0.35 in (1942)
Month to date precipitation 0.02 0.08  
Year to date precipitation 7.65 12.79  
Snow  
Snow 0.00 in 0.10 in 2.00 in (1956)
Month to date snowfall 0.0 0.3  
Since 1 July snowfall T 2.5  
Since 1 September snowfall T 2.5  
Snow Depth 0.00 in    
Sea Level Pressure  
Sea Level Pressure 30.19 in    
Wind  
Wind Speed 2 mph (South)    
Max Wind Speed 9 mph    
Max Gust Speed 9 mph    
Visibility 10 miles    
Events      
T = Trace of Precipitation, MM = Missing Value Source: NWS Daily Summary

Daily Weather History Graph

Daily Weather History Graph

Search for Another Location

Airport:

Trip Planner

Search our weather history database for the weather conditions in past years. The results will help you decide how hot, cold, wet, or windy it might be!

Date:

Astronomy

Nov. 03, 2012 Rise Set
Actual Time 8:08 AM MDT 6:07 PM MDT
Civil Twilight 7:37 AM MDT 6:38 PM MDT
Nautical Twilight 7:01 AM MDT 7:13 PM MDT
Astronomical Twilight 6:27 AM MDT 7:48 PM MDT
Moon 9:47 PM MDT (11/3) 12:20 PM MDT (11/3)
Length of Visible Light 11h 01m
Length of Day
9h 59m
Waning Gibbous, 80% of the Moon is Illuminated
Nov 3
Waning Gibbous
Nov 6
Last Quarter
Nov 13
New
Nov 20
First Quarter
Nov 28
Full

Hourly Weather History & Observations

Time (MDT) Temp. Windchill Dew Point Humidity Pressure Visibility Wind Dir Wind Speed Gust Speed Precip Events Conditions
12:56 AM 30.0 °F 24.1 °F 26.1 °F 85% 30.18 in 10.0 mi SE 5.8 mph - N/A   Clear
1:56 AM 30.9 °F 27.5 °F 27.0 °F 85% 30.17 in 10.0 mi South 3.5 mph - N/A   Clear
2:56 AM 30.0 °F 25.2 °F 26.1 °F 85% 30.17 in 10.0 mi South 4.6 mph - N/A   Clear
3:56 AM 27.0 °F - 25.0 °F 92% 30.19 in 10.0 mi Calm Calm - N/A   Clear
4:56 AM 28.0 °F 21.7 °F 24.1 °F 85% 30.19 in 10.0 mi SSE 5.8 mph - N/A   Clear
5:56 AM 27.0 °F 20.5 °F 23.0 °F 85% 30.21 in 10.0 mi South 5.8 mph - N/A   Clear
6:56 AM 23.0 °F - 19.9 °F 88% 30.24 in 10.0 mi Calm Calm - N/A   Clear
7:56 AM 24.1 °F - 21.0 °F 88% 30.25 in 10.0 mi Calm Calm - N/A   Scattered Clouds
8:56 AM 28.9 °F - 25.0 °F 85% 30.27 in 10.0 mi Calm Calm - N/A   Overcast
9:56 AM 32.0 °F - 28.9 °F 88% 30.25 in 10.0 mi Calm Calm - N/A   Overcast
10:56 AM 37.9 °F - 32.0 °F 79% 30.26 in 10.0 mi Calm Calm - N/A   Clear
11:56 AM 45.0 °F - 32.0 °F 60% 30.22 in 10.0 mi Calm Calm - N/A   Overcast
12:56 PM 51.1 °F - 30.9 °F 46% 30.19 in 10.0 mi Calm Calm - N/A   Mostly Cloudy
1:56 PM 53.1 °F - 28.9 °F 40% 30.15 in 10.0 mi NNW 3.5 mph - N/A   Clear
2:56 PM 55.0 °F - 28.0 °F 35% 30.13 in 10.0 mi Calm Calm - N/A   Mostly Cloudy
3:56 PM 55.0 °F - 27.0 °F 34% 30.14 in 10.0 mi Calm Calm - N/A   Clear
4:56 PM 53.1 °F - 28.0 °F 38% 30.13 in 10.0 mi North 3.5 mph - N/A   Clear
5:56 PM 50.0 °F - 28.0 °F 43% 30.14 in 10.0 mi WSW 3.5 mph - N/A   Clear
6:56 PM 48.0 °F - 28.0 °F 46% 30.17 in 10.0 mi Calm Calm - N/A   Clear
7:56 PM 44.1 °F 40.1 °F 32.0 °F 63% 30.19 in 10.0 mi SSE 6.9 mph - N/A   Overcast
8:56 PM 44.1 °F - 33.1 °F 65% 30.18 in 10.0 mi Calm Calm - N/A   Overcast
9:56 PM 44.1 °F - 33.1 °F 65% 30.19 in 10.0 mi Calm Calm - N/A   Overcast
10:56 PM 46.9 °F - 30.0 °F 52% 30.15 in 10.0 mi Calm Calm - N/A   Scattered Clouds
11:56 PM 43.0 °F - 30.9 °F 62% 30.16 in 10.0 mi Calm Calm - N/A   Partly Cloudy